Time,TemperatureF,DewpointF,PressureIn,WindDirection,WindDirectionDegrees,WindSpeedMPH,WindSpeedGustMPH,Humidity,HourlyPrecipIn,Conditions,Clouds,dailyrainin,SoftwareType,DateUTC
2013-02-13 00:01:00,64.8,55.1,30.15,NNE,22,24.0,29.0,71,0.00,,,0.00,Weather View 32 v70,2013-02-13 10:01:00,
2013-02-13 00:06:00,64.8,54.8,30.14,NNE,13,27.0,29.0,70,0.00,,,0.00,Weather View 32 v70,2013-02-13 10:06:00,
2013-02-13 00:11:00,64.9,54.9,30.15,North,1,24.0,29.0,70,0.00,,,0.00,Weather View 32 v70,2013-02-13 10:11:00,
2013-02-13 00:16:00,65.0,54.9,30.14,North,357,22.0,29.0,70,0.00,,,0.00,Weather View 32 v70,2013-02-13 10:16:00,
2013-02-13 00:21:00,65.1,54.6,30.13,North,2,28.0,29.0,69,0.00,,,0.00,Weather View 32 v70,2013-02-13 10:21:00,
2013-02-13 00:26:00,65.3,54.8,30.14,North,4,31.0,32.0,69,0.00,,,0.00,Weather View 32 v70,2013-02-13 10:26:00,
2013-02-13 00:31:00,65.4,54.5,30.15,NNW,335,20.0,32.0,68,0.00,,,0.00,Weather View 32 v70,2013-02-13 10:31:00,
2013-02-13 00:36:00,65.5,54.6,30.13,North,359,25.0,33.0,68,0.00,,,0.00,Weather View 32 v70,2013-02-13 10:36:00,
2013-02-13 00:41:00,65.4,54.9,30.13,NNE,12,24.0,33.0,69,0.00,,,0.00,Weather View 32 v70,2013-02-13 10:41:00,
2013-02-13 00:46:00,65.5,54.6,30.14,North,2,27.0,33.0,68,0.00,,,0.00,Weather View 32 v70,2013-02-13 10:46:00,
2013-02-13 00:51:00,65.4,54.9,30.13,North,4,22.0,33.0,69,0.00,,,0.00,Weather View 32 v70,2013-02-13 10:51:00,
2013-02-13 00:56:00,65.2,55.1,30.14,North,5,22.0,33.0,70,0.00,,,0.00,Weather View 32 v70,2013-02-13 10:56:00,
2013-02-13 01:01:00,65.1,55.8,30.13,North,359,25.0,33.0,72,0.00,,,0.00,Weather View 32 v70,2013-02-13 11:01:00,
2013-02-13 01:05:00,65.1,56.2,30.15,NNE,12,20.0,33.0,73,0.00,,,0.00,Weather View 32 v70,2013-02-13 11:05:00,
2013-02-13 01:10:00,65.0,56.1,30.14,North,354,23.0,33.0,73,0.00,,,0.00,Weather View 32 v70,2013-02-13 11:10:00,
2013-02-13 01:15:00,64.9,56.0,30.14,North,4,14.0,33.0,73,0.00,,,0.00,Weather View 32 v70,2013-02-13 11:15:00,
2013-02-13 01:20:00,64.9,56.0,30.14,NNE,24,21.0,33.0,73,0.00,,,0.00,Weather View 32 v70,2013-02-13 11:20:00,
2013-02-13 01:25:00,64.9,56.0,30.14,North,9,26.0,33.0,73,0.00,,,0.00,Weather View 32 v70,2013-02-13 11:25:00,
2013-02-13 01:30:00,64.9,55.6,30.13,NNE,31,27.0,33.0,72,0.00,,,0.00,Weather View 32 v70,2013-02-13 11:30:00,
2013-02-13 01:35:00,64.9,55.2,30.14,North,6,24.0,32.0,71,0.00,,,0.00,Weather View 32 v70,2013-02-13 11:35:00,
2013-02-13 01:40:00,64.9,55.2,30.13,North,6,29.0,31.0,71,0.00,,,0.00,Weather View 32 v70,2013-02-13 11:40:00,
2013-02-13 01:45:00,64.9,54.5,30.12,NNE,14,24.0,31.0,69,0.00,,,0.00,Weather View 32 v70,2013-02-13 11:45:00,
2013-02-13 01:50:00,64.9,54.1,30.13,North,6,21.0,31.0,68,0.00,,,0.00,Weather View 32 v70,2013-02-13 11:50:00,
2013-02-13 01:55:00,65.0,53.7,30.12,North,10,26.0,31.0,67,0.00,,,0.00,Weather View 32 v70,2013-02-13 11:55:00,
2013-02-13 02:00:00,65.0,53.7,30.11,North,353,23.0,31.0,67,0.00,,,0.00,Weather View 32 v70,2013-02-13 12:00:00,
2013-02-13 02:05:00,65.0,53.7,30.12,NNE,23,24.0,30.0,67,0.00,,,0.00,Weather View 32 v70,2013-02-13 12:05:00,
2013-02-13 02:10:00,65.0,54.2,30.11,North,9,20.0,30.0,68,0.00,,,0.00,Weather View 32 v70,2013-02-13 12:10:00,
2013-02-13 02:15:00,64.9,54.1,30.13,North,351,20.0,30.0,68,0.00,,,0.00,Weather View 32 v70,2013-02-13 12:15:00,
2013-02-13 02:20:00,65.0,54.2,30.11,North,354,24.0,30.0,68,0.00,,,0.00,Weather View 32 v70,2013-02-13 12:20:00,
2013-02-13 02:25:00,65.0,54.2,30.12,North,355,15.0,30.0,68,0.00,,,0.00,Weather View 32 v70,2013-02-13 12:25:00,
2013-02-13 02:30:00,65.0,54.2,30.10,North,354,18.0,30.0,68,0.00,,,0.00,Weather View 32 v70,2013-02-13 12:30:00,
2013-02-13 02:35:00,65.1,54.2,30.11,North,1,19.0,30.0,68,0.00,,,0.00,Weather View 32 v70,2013-02-13 12:35:00,
2013-02-13 02:40:00,65.1,53.8,30.11,NNW,347,18.0,30.0,67,0.00,,,0.00,Weather View 32 v70,2013-02-13 12:40:00,
2013-02-13 02:45:00,65.2,53.5,30.11,North,354,18.0,30.0,66,0.00,,,0.00,Weather View 32 v70,2013-02-13 12:45:00,
2013-02-13 02:50:00,65.3,53.6,30.10,NNW,329,19.0,30.0,66,0.00,,,0.00,Weather View 32 v70,2013-02-13 12:50:00,
2013-02-13 02:55:00,65.3,54.0,30.09,North,353,21.0,30.0,67,0.00,,,0.00,Weather View 32 v70,2013-02-13 12:55:00,
2013-02-13 03:00:00,65.2,54.3,30.10,North,356,23.0,30.0,68,0.00,,,0.00,Weather View 32 v70,2013-02-13 13:00:00,
2013-02-13 03:05:00,65.2,54.7,30.10,NNW,339,17.0,30.0,69,0.00,,,0.00,Weather View 32 v70,2013-02-13 13:05:00,
2013-02-13 03:10:00,65.0,54.6,30.10,North,10,18.0,30.0,69,0.00,,,0.00,Weather View 32 v70,2013-02-13 13:10:00,
2013-02-13 03:15:00,65.0,55.3,30.09,NNE,17,24.0,30.0,71,0.00,,,0.00,Weather View 32 v70,2013-02-13 13:15:00,
2013-02-13 03:20:00,65.0,55.7,30.09,NNE,12,21.0,30.0,72,0.00,,,0.00,Weather View 32 v70,2013-02-13 13:20:00,
2013-02-13 03:25:00,64.8,55.5,30.09,North,360,22.0,30.0,72,0.00,,,0.00,Weather View 32 v70,2013-02-13 13:25:00,
2013-02-13 06:35:00,64.8,56.3,30.09,North,8,22.0,23.0,74,0.00,,,0.00,Weather View 32 v70,2013-02-13 16:35:00,
2013-02-13 06:40:00,64.7,55.8,30.10,NNE,25,20.0,27.0,73,0.00,,,0.00,Weather View 32 v70,2013-02-13 16:40:00,
2013-02-13 06:45:00,64.7,55.4,30.09,North,354,24.0,28.0,72,0.00,,,0.00,Weather View 32 v70,2013-02-13 16:45:00,
2013-02-13 06:50:00,64.7,55.8,30.09,NNE,13,21.0,28.0,73,0.00,,,0.00,Weather View 32 v70,2013-02-13 16:50:00,
2013-02-13 06:56:00,64.8,55.9,30.09,NNE,12,24.0,28.0,73,0.00,,,0.00,Weather View 32 v70,2013-02-13 16:56:00,
2013-02-13 07:01:00,64.9,56.0,30.10,North,3,22.0,29.0,73,0.00,,,0.00,Weather View 32 v70,2013-02-13 17:01:00,
2013-02-13 07:06:00,64.9,56.4,30.10,North,355,14.0,29.0,74,0.00,,,0.00,Weather View 32 v70,2013-02-13 17:06:00,
2013-02-13 07:11:00,64.9,56.4,30.09,North,360,24.0,30.0,74,0.00,,,0.00,Weather View 32 v70,2013-02-13 17:11:00,
2013-02-13 07:16:00,64.9,56.4,30.09,NNW,339,18.0,30.0,74,0.00,,,0.00,Weather View 32 v70,2013-02-13 17:16:00,
2013-02-13 07:21:00,65.1,56.6,30.08,NNE,12,24.0,30.0,74,0.00,,,0.00,Weather View 32 v70,2013-02-13 17:21:00,
2013-02-13 07:26:00,65.2,56.7,30.10,North,355,23.0,30.0,74,0.00,,,0.00,Weather View 32 v70,2013-02-13 17:26:00,
2013-02-13 07:31:00,65.5,56.2,30.10,North,353,21.0,30.0,72,0.00,,,0.00,Weather View 32 v70,2013-02-13 17:31:00,
2013-02-13 07:36:00,65.5,56.6,30.10,North,349,22.0,30.0,73,0.00,,,0.00,Weather View 32 v70,2013-02-13 17:36:00,
2013-02-13 07:41:00,65.2,56.7,30.10,NNE,17,23.0,30.0,74,0.00,,,0.00,Weather View 32 v70,2013-02-13 17:41:00,
2013-02-13 07:46:00,65.0,56.5,30.10,North,1,20.0,30.0,74,0.00,,,0.00,Weather View 32 v70,2013-02-13 17:46:00,
2013-02-13 07:51:00,65.0,56.9,30.11,North,4,24.0,30.0,75,0.00,,,0.00,Weather View 32 v70,2013-02-13 17:51:00,
2013-02-13 07:56:00,65.1,56.6,30.11,North,357,21.0,30.0,74,0.00,,,0.00,Weather View 32 v70,2013-02-13 17:56:00,
2013-02-13 08:01:00,65.2,56.7,30.11,North,3,20.0,30.0,74,0.00,,,0.00,Weather View 32 v70,2013-02-13 18:01:00,
2013-02-13 08:06:00,65.3,56.8,30.10,NE,36,20.0,30.0,74,0.00,,,0.00,Weather View 32 v70,2013-02-13 18:06:00,
2013-02-13 08:11:00,65.5,56.6,30.11,NNE,18,16.0,30.0,73,0.00,,,0.00,Weather View 32 v70,2013-02-13 18:11:00,
2013-02-13 08:16:00,65.4,56.5,30.11,North,11,24.0,30.0,73,0.00,,,0.00,Weather View 32 v70,2013-02-13 18:16:00,
2013-02-13 08:21:00,65.7,54.8,30.11,NNE,14,24.0,30.0,68,0.00,,,0.00,Weather View 32 v70,2013-02-13 18:21:00,
2013-02-13 08:26:00,65.9,55.8,30.12,NNE,14,23.0,31.0,70,0.00,,,0.00,Weather View 32 v70,2013-02-13 18:26:00,
2013-02-13 08:31:00,66.2,56.5,30.12,NNE,23,22.0,31.0,71,0.00,,,0.00,Weather View 32 v70,2013-02-13 18:31:00,
2013-02-13 08:36:00,66.3,55.8,30.11,North,8,25.0,31.0,69,0.00,,,0.00,Weather View 32 v70,2013-02-13 18:36:00,
2013-02-13 08:41:00,66.3,56.2,30.11,NNE,18,24.0,31.0,70,0.00,,,0.00,Weather View 32 v70,2013-02-13 18:41:00,
2013-02-13 08:47:00,66.3,55.4,30.11,NNE,16,20.0,31.0,68,0.00,,,0.00,Weather View 32 v70,2013-02-13 18:47:00,
2013-02-13 08:53:00,66.3,56.6,30.11,North,8,27.0,34.0,71,0.00,,,0.00,Weather View 32 v70,2013-02-13 18:53:00,
2013-02-13 08:58:00,66.4,57.5,30.11,North,356,25.0,34.0,73,0.00,,,0.00,Weather View 32 v70,2013-02-13 18:58:00,
2013-02-13 09:03:00,66.1,58.3,30.11,NNE,26,28.0,34.0,76,0.00,,,0.00,Weather View 32 v70,2013-02-13 19:03:00,
2013-02-13 09:09:00,66.5,56.0,30.12,NNE,23,25.0,34.0,69,0.00,,,0.00,Weather View 32 v70,2013-02-13 19:09:00,
2013-02-13 09:14:00,66.2,56.9,30.12,North,8,29.0,34.0,72,0.00,,,0.00,Weather View 32 v70,2013-02-13 19:14:00,
2013-02-13 09:21:00,66.5,55.6,30.12,NNE,18,17.0,34.0,68,0.00,,,0.00,Weather View 32 v70,2013-02-13 19:21:00,
2013-02-13 09:27:00,66.8,55.0,30.12,NNE,14,21.0,34.0,66,0.00,,,0.00,Weather View 32 v70,2013-02-13 19:27:00,
2013-02-13 09:32:00,66.3,56.2,30.12,North,8,28.0,34.0,70,0.00,,,0.00,Weather View 32 v70,2013-02-13 19:32:00,
2013-02-13 09:37:00,66.2,58.0,30.12,NNE,18,25.0,34.0,75,0.00,,,0.00,Weather View 32 v70,2013-02-13 19:37:00,
2013-02-13 09:40:00,66.0,58.2,30.11,NNE,15,26.0,34.0,76,0.00,,,0.00,Weather View 32 v70,2013-02-13 19:40:00,
2013-02-13 09:43:00,65.8,58.4,30.12,NNE,26,21.0,34.0,77,0.00,,,0.00,Weather View 32 v70,2013-02-13 19:43:00,
2013-02-13 09:45:00,65.7,58.3,30.13,NNE,18,23.0,34.0,77,0.00,,,0.00,Weather View 32 v70,2013-02-13 19:45:00,
2013-02-13 09:50:00,65.6,58.2,30.12,NNE,23,24.0,34.0,77,0.00,,,0.00,Weather View 32 v70,2013-02-13 19:50:00,
2013-02-13 09:55:00,65.8,58.4,30.12,NNE,25,20.0,33.0,77,0.00,,,0.00,Weather View 32 v70,2013-02-13 19:55:00,
2013-02-13 10:07:00,64.9,57.9,30.13,North,360,21.0,33.0,78,0.00,,,0.00,Weather View 32 v70,2013-02-13 20:07:00,
2013-02-13 10:13:00,64.7,57.7,30.13,North,10,22.0,33.0,78,0.00,,,0.00,Weather View 32 v70,2013-02-13 20:13:00,
2013-02-13 10:18:00,64.7,57.7,30.12,NNE,22,25.0,33.0,78,0.00,,,0.00,Weather View 32 v70,2013-02-13 20:18:00,
2013-02-13 10:24:00,64.4,57.7,30.12,North,360,27.0,33.0,79,0.00,,,0.00,Weather View 32 v70,2013-02-13 20:24:00,
2013-02-13 10:29:00,64.8,58.5,30.13,North,11,18.0,33.0,80,0.00,,,0.00,Weather View 32 v70,2013-02-13 20:29:00,
2013-02-13 10:34:00,65.3,58.2,30.13,North,359,21.0,32.0,78,0.00,,,0.00,Weather View 32 v70,2013-02-13 20:34:00,
2013-02-13 10:40:00,65.5,58.1,30.13,NE,37,24.0,32.0,77,0.00,,,0.00,Weather View 32 v70,2013-02-13 20:40:00,
2013-02-13 10:50:00,66.4,58.6,30.12,NNE,23,22.0,32.0,76,0.00,,,0.00,Weather View 32 v70,2013-02-13 20:50:00,
2013-02-13 11:00:00,66.5,58.7,30.13,NNE,29,25.0,37.0,76,0.00,,,0.00,Weather View 32 v70,2013-02-13 21:00:00,
2013-02-13 11:07:00,66.3,57.7,30.11,North,11,23.0,37.0,74,0.00,,,0.00,Weather View 32 v70,2013-02-13 21:07:00,
2013-02-13 11:14:00,66.3,57.7,30.11,North,360,29.0,37.0,74,0.00,,,0.00,Weather View 32 v70,2013-02-13 21:14:00,
2013-02-13 11:15:00,66.2,57.6,30.11,NNE,24,22.0,37.0,74,0.00,,,0.00,Weather View 32 v70,2013-02-13 21:15:00,
2013-02-13 11:20:00,66.9,57.9,30.12,NNE,14,20.0,37.0,73,0.00,,,0.00,Weather View 32 v70,2013-02-13 21:20:00,
2013-02-13 11:26:00,66.2,57.3,30.13,NE,38,23.0,37.0,73,0.00,,,0.00,Weather View 32 v70,2013-02-13 21:26:00,
2013-02-13 11:31:00,66.2,56.9,30.12,North,350,21.0,37.0,72,0.00,,,0.00,Weather View 32 v70,2013-02-13 21:31:00,
2013-02-13 11:37:00,66.6,56.5,30.11,North,351,25.0,37.0,70,0.00,,,0.00,Weather View 32 v70,2013-02-13 21:37:00,
2013-02-13 11:42:00,66.8,57.1,30.12,NNE,18,27.0,37.0,71,0.00,,,0.00,Weather View 32 v70,2013-02-13 21:42:00,
2013-02-13 11:45:00,66.7,57.0,30.11,North,8,27.0,37.0,71,0.00,,,0.00,Weather View 32 v70,2013-02-13 21:45:00,
2013-02-13 11:48:00,66.2,56.5,30.11,North,3,18.0,37.0,71,0.00,,,0.00,Weather View 32 v70,2013-02-13 21:48:00,
2013-02-13 11:53:00,66.6,56.9,30.09,NNE,26,23.0,35.0,71,0.00,,,0.00,Weather View 32 v70,2013-02-13 21:53:00,
2013-02-13 12:00:00,66.5,56.4,30.10,North,1,24.0,35.0,70,0.00,,,0.00,Weather View 32 v70,2013-02-13 22:00:00,
2013-02-13 12:05:00,66.4,56.7,30.09,NNE,31,25.0,35.0,71,0.00,,,0.00,Weather View 32 v70,2013-02-13 22:05:00,
2013-02-13 12:14:00,66.6,56.1,30.09,NNE,15,28.0,35.0,69,0.00,,,0.00,Weather View 32 v70,2013-02-13 22:14:00,
2013-02-13 12:19:00,66.4,56.3,30.10,NNW,347,21.0,35.0,70,0.00,,,0.00,Weather View 32 v70,2013-02-13 22:19:00,
2013-02-13 12:25:00,66.4,56.3,30.09,North,8,27.0,35.0,70,0.00,,,0.00,Weather View 32 v70,2013-02-13 22:25:00,
2013-02-13 12:31:00,66.9,56.4,30.08,North,351,26.0,35.0,69,0.00,,,0.00,Weather View 32 v70,2013-02-13 22:31:00,
2013-02-13 12:37:00,66.9,56.8,30.09,North,355,23.0,35.0,70,0.00,,,0.00,Weather View 32 v70,2013-02-13 22:37:00,
2013-02-13 12:42:00,66.7,56.2,30.07,North,2,22.0,35.0,69,0.00,,,0.00,Weather View 32 v70,2013-02-13 22:42:00,
2013-02-13 12:48:00,66.7,57.0,30.08,NNW,339,17.0,35.0,71,0.00,,,0.00,Weather View 32 v70,2013-02-13 22:48:00,
2013-02-13 12:53:00,66.6,56.9,30.08,NNE,18,19.0,35.0,71,0.00,,,0.00,Weather View 32 v70,2013-02-13 22:53:00,
2013-02-13 12:58:00,66.4,56.3,30.08,NNE,28,16.0,35.0,70,0.00,,,0.00,Weather View 32 v70,2013-02-13 22:58:00,
2013-02-13 13:00:00,66.5,56.8,30.07,NNE,14,25.0,35.0,71,0.00,,,0.00,Weather View 32 v70,2013-02-13 23:00:00,
2013-02-13 13:04:00,66.6,56.9,30.08,NNE,19,20.0,35.0,71,0.00,,,0.00,Weather View 32 v70,2013-02-13 23:04:00,
2013-02-13 13:09:00,66.5,56.4,30.07,North,357,20.0,33.0,70,0.00,,,0.00,Weather View 32 v70,2013-02-13 23:09:00,
2013-02-13 13:15:00,67.0,56.5,30.07,NNE,17,26.0,33.0,69,0.00,,,0.00,Weather View 32 v70,2013-02-13 23:15:00,
2013-02-13 13:21:00,66.5,56.4,30.07,North,4,21.0,33.0,70,0.00,,,0.00,Weather View 32 v70,2013-02-13 23:21:00,
2013-02-13 13:28:00,66.5,57.2,30.06,NNE,16,21.0,32.0,72,0.00,,,0.00,Weather View 32 v70,2013-02-13 23:28:00,
2013-02-13 13:33:00,66.2,57.3,30.06,NNE,17,22.0,32.0,73,0.00,,,0.00,Weather View 32 v70,2013-02-13 23:33:00,
2013-02-13 13:38:00,66.6,58.0,30.06,NNE,21,29.0,32.0,74,0.00,,,0.00,Weather View 32 v70,2013-02-13 23:38:00,
2013-02-13 13:43:00,65.6,57.4,30.06,North,10,21.0,32.0,75,0.00,,,0.00,Weather View 32 v70,2013-02-13 23:43:00,
2013-02-13 13:49:00,65.9,57.7,30.06,North,2,22.0,32.0,75,0.00,,,0.00,Weather View 32 v70,2013-02-13 23:49:00,
2013-02-13 13:54:00,66.1,57.9,30.05,NNE,16,27.0,32.0,75,0.00,,,0.00,Weather View 32 v70,2013-02-13 23:54:00,
2013-02-13 13:59:00,65.8,57.3,30.05,North,1,19.0,32.0,74,0.00,,,0.00,Weather View 32 v70,2013-02-13 23:59:00,
2013-02-13 14:05:00,65.9,57.0,30.05,NNE,27,24.0,31.0,73,0.00,,,0.00,Weather View 32 v70,2013-02-14 00:05:00,
2013-02-13 14:12:00,65.8,56.9,30.05,North,6,25.0,31.0,73,0.00,,,0.00,Weather View 32 v70,2013-02-14 00:12:00,
2013-02-13 14:30:00,66.0,57.4,30.05,North,8,24.0,31.0,74,0.00,,,0.00,Weather View 32 v70,2013-02-14 00:30:00,
2013-02-13 14:39:00,65.8,58.0,30.04,NNE,25,16.0,31.0,76,0.00,,,0.00,Weather View 32 v70,2013-02-14 00:39:00,
2013-02-13 14:44:00,65.8,57.6,30.04,North,10,21.0,31.0,75,0.00,,,0.00,Weather View 32 v70,2013-02-14 00:44:00,
2013-02-13 14:50:00,65.7,56.8,30.04,NNW,347,18.0,31.0,73,0.00,,,0.00,Weather View 32 v70,2013-02-14 00:50:00,
2013-02-13 14:57:00,65.6,56.7,30.04,North,353,24.0,30.0,73,0.00,,,0.00,Weather View 32 v70,2013-02-14 00:57:00,
2013-02-13 15:02:00,65.9,57.0,30.04,North,8,20.0,30.0,73,0.00,,,0.00,Weather View 32 v70,2013-02-14 01:02:00,
2013-02-13 15:09:00,65.5,56.2,30.03,North,2,13.0,32.0,72,0.00,,,0.00,Weather View 32 v70,2013-02-14 01:09:00,
2013-02-13 15:15:00,66.1,57.2,30.04,North,5,16.0,32.0,73,0.00,,,0.00,Weather View 32 v70,2013-02-14 01:15:00,
2013-02-13 15:20:00,66.1,56.8,30.02,North,357,27.0,32.0,72,0.00,,,0.00,Weather View 32 v70,2013-02-14 01:20:00,
2013-02-13 15:25:00,65.8,56.5,30.04,North,351,23.0,32.0,72,0.00,,,0.00,Weather View 32 v70,2013-02-14 01:25:00,
2013-02-13 15:30:00,66.1,57.2,30.03,NNW,348,22.0,32.0,73,0.00,,,0.00,Weather View 32 v70,2013-02-14 01:30:00,
2013-02-13 15:31:00,66.0,57.1,30.03,NNE,28,23.0,32.0,73,0.00,,,0.00,Weather View 32 v70,2013-02-14 01:31:00,
2013-02-13 15:37:00,65.6,57.1,30.03,North,355,21.0,32.0,74,0.00,,,0.00,Weather View 32 v70,2013-02-14 01:37:00,
2013-02-13 15:43:00,65.8,57.3,30.04,North,3,19.0,32.0,74,0.00,,,0.00,Weather View 32 v70,2013-02-14 01:43:00,
2013-02-13 15:48:00,65.8,57.3,30.03,NNW,328,13.0,32.0,74,0.00,,,0.00,Weather View 32 v70,2013-02-14 01:48:00,
2013-02-13 15:53:00,65.8,57.3,30.04,North,10,19.0,32.0,74,0.00,,,0.00,Weather View 32 v70,2013-02-14 01:53:00,
2013-02-13 15:58:00,65.9,57.0,30.03,North,11,19.0,32.0,73,0.00,,,0.00,Weather View 32 v70,2013-02-14 01:58:00,
2013-02-13 16:04:00,65.8,57.3,30.03,NNE,29,24.0,32.0,74,0.00,,,0.00,Weather View 32 v70,2013-02-14 02:04:00,
2013-02-13 16:10:00,65.9,57.4,30.03,North,1,23.0,29.0,74,0.00,,,0.00,Weather View 32 v70,2013-02-14 02:10:00,
2013-02-13 16:20:00,66.0,57.4,30.04,NNE,18,16.0,29.0,74,0.00,,,0.00,Weather View 32 v70,2013-02-14 02:20:00,
2013-02-13 16:25:00,66.0,57.1,30.04,NNE,17,20.0,29.0,73,0.00,,,0.00,Weather View 32 v70,2013-02-14 02:25:00,
2013-02-13 16:35:00,65.6,58.2,30.03,North,5,24.0,28.0,77,0.00,,,0.00,Weather View 32 v70,2013-02-14 02:35:00,
2013-02-13 16:40:00,65.4,58.3,30.03,North,3,23.0,28.0,78,0.00,,,0.00,Weather View 32 v70,2013-02-14 02:40:00,
2013-02-13 16:45:00,65.2,58.5,30.02,NNE,24,19.0,28.0,79,0.00,,,0.00,Weather View 32 v70,2013-02-14 02:45:00,
2013-02-13 16:50:00,65.1,58.0,30.02,North,4,22.0,28.0,78,0.00,,,0.00,Weather View 32 v70,2013-02-14 02:50:00,
2013-02-13 16:55:00,65.0,58.0,30.03,North,351,17.0,28.0,78,0.00,,,0.00,Weather View 32 v70,2013-02-14 02:55:00,
2013-02-13 17:01:00,65.1,57.7,30.04,North,4,19.0,28.0,77,0.00,,,0.00,Weather View 32 v70,2013-02-14 03:01:00,
2013-02-13 17:07:00,65.1,57.7,30.04,NNW,329,18.0,28.0,77,0.00,,,0.00,Weather View 32 v70,2013-02-14 03:07:00,
2013-02-13 17:12:00,65.1,57.3,30.04,NNW,345,11.0,28.0,76,0.00,,,0.00,Weather View 32 v70,2013-02-14 03:12:00,
2013-02-13 17:15:00,65.1,57.0,30.03,NNE,23,22.0,28.0,75,0.00,,,0.00,Weather View 32 v70,2013-02-14 03:15:00,
2013-02-13 17:17:00,65.1,57.0,30.04,NNE,15,16.0,28.0,75,0.00,,,0.00,Weather View 32 v70,2013-02-14 03:17:00,
2013-02-13 17:24:00,65.2,57.1,30.06,North,355,16.0,28.0,75,0.00,,,0.00,Weather View 32 v70,2013-02-14 03:24:00,
2013-02-13 17:30:00,65.2,56.7,30.04,North,354,20.0,28.0,74,0.00,,,0.00,Weather View 32 v70,2013-02-14 03:30:00,
2013-02-13 17:35:00,65.2,56.7,30.06,North,353,14.0,28.0,74,0.00,,,0.00,Weather View 32 v70,2013-02-14 03:35:00,
2013-02-13 17:40:00,65.3,56.8,30.06,NNW,339,19.0,28.0,74,0.00,,,0.00,Weather View 32 v70,2013-02-14 03:40:00,
2013-02-13 17:45:00,65.4,56.9,30.06,North,6,16.0,28.0,74,0.00,,,0.00,Weather View 32 v70,2013-02-14 03:45:00,
2013-02-13 17:50:00,65.5,56.6,30.05,North,349,21.0,30.0,73,0.00,,,0.00,Weather View 32 v70,2013-02-14 03:50:00,
2013-02-13 17:55:00,65.6,56.3,30.06,NNW,344,23.0,30.0,72,0.00,,,0.00,Weather View 32 v70,2013-02-14 03:55:00,
2013-02-13 18:00:00,65.6,56.3,30.05,NNE,16,17.0,30.0,72,0.00,,,0.00,Weather View 32 v70,2013-02-14 04:00:00,
2013-02-13 18:05:00,65.6,56.7,30.04,North,350,23.0,30.0,73,0.00,,,0.00,Weather View 32 v70,2013-02-14 04:05:00,
2013-02-13 18:10:00,65.6,56.3,30.06,North,353,20.0,30.0,72,0.00,,,0.00,Weather View 32 v70,2013-02-14 04:10:00,
2013-02-13 18:15:00,65.6,56.7,30.05,North,357,22.0,30.0,73,0.00,,,0.00,Weather View 32 v70,2013-02-14 04:15:00,
2013-02-13 18:20:00,65.6,56.3,30.05,North,11,14.0,30.0,72,0.00,,,0.00,Weather View 32 v70,2013-02-14 04:20:00,
2013-02-13 18:25:00,65.6,55.9,30.06,North,356,23.0,31.0,71,0.00,,,0.00,Weather View 32 v70,2013-02-14 04:25:00,
2013-02-13 18:30:00,65.6,55.9,30.05,North,355,30.0,31.0,71,0.00,,,0.00,Weather View 32 v70,2013-02-14 04:30:00,
2013-02-13 18:35:00,65.6,55.9,30.05,North,360,24.0,31.0,71,0.00,,,0.00,Weather View 32 v70,2013-02-14 04:35:00,
2013-02-13 18:40:00,65.6,55.9,30.04,NNW,330,26.0,32.0,71,0.00,,,0.00,Weather View 32 v70,2013-02-14 04:40:00,
2013-02-13 18:45:00,65.5,56.2,30.05,NNW,330,18.0,32.0,72,0.00,,,0.00,Weather View 32 v70,2013-02-14 04:45:00,
2013-02-13 18:50:00,65.5,56.2,30.05,North,351,20.0,32.0,72,0.00,,,0.00,Weather View 32 v70,2013-02-14 04:50:00,
2013-02-13 18:55:00,65.5,56.2,30.07,NNE,22,21.0,32.0,72,0.00,,,0.00,Weather View 32 v70,2013-02-14 04:55:00,
2013-02-13 19:00:00,65.4,56.1,30.07,North,1,10.0,32.0,72,0.00,,,0.00,Weather View 32 v70,2013-02-14 05:00:00,
2013-02-13 19:05:00,65.5,55.8,30.06,NW,319,12.0,32.0,71,0.00,,,0.00,Weather View 32 v70,2013-02-14 05:05:00,
2013-02-13 19:10:00,65.6,55.5,30.07,NNW,342,25.0,32.0,70,0.00,,,0.00,Weather View 32 v70,2013-02-14 05:10:00,
2013-02-13 19:15:00,65.7,55.2,30.06,NNW,334,16.0,32.0,69,0.00,,,0.00,Weather View 32 v70,2013-02-14 05:15:00,
2013-02-13 19:20:00,65.6,55.5,30.07,NNW,339,12.0,32.0,70,0.00,,,0.00,Weather View 32 v70,2013-02-14 05:20:00,
2013-02-13 19:25:00,65.6,55.1,30.08,North,358,14.0,32.0,69,0.00,,,0.00,Weather View 32 v70,2013-02-14 05:25:00,
2013-02-13 19:30:00,65.6,55.5,30.08,North,349,11.0,32.0,70,0.00,,,0.00,Weather View 32 v70,2013-02-14 05:30:00,
2013-02-13 19:35:00,65.6,55.1,30.08,North,353,17.0,32.0,69,0.00,,,0.00,Weather View 32 v70,2013-02-14 05:35:00,
2013-02-13 19:40:00,65.8,54.9,30.09,NNW,330,9.0,31.0,68,0.00,,,0.00,Weather View 32 v70,2013-02-14 05:40:00,
2013-02-13 19:46:00,65.8,54.9,30.08,NNE,12,14.0,30.0,68,0.00,,,0.00,Weather View 32 v70,2013-02-14 05:46:00,
2013-02-13 19:51:00,65.8,54.9,30.09,NNW,332,9.0,30.0,68,0.00,,,0.00,Weather View 32 v70,2013-02-14 05:51:00,
2013-02-13 19:56:00,65.7,54.8,30.10,NNE,28,12.0,30.0,68,0.00,,,0.00,Weather View 32 v70,2013-02-14 05:56:00,
2013-02-13 20:01:00,65.6,54.7,30.10,NNW,330,12.0,28.0,68,0.00,,,0.00,Weather View 32 v70,2013-02-14 06:01:00,
2013-02-13 20:06:00,65.6,54.3,30.09,NNW,328,22.0,32.0,67,0.00,,,0.00,Weather View 32 v70,2013-02-14 06:06:00,
2013-02-13 20:11:00,65.8,54.5,30.10,NNW,334,15.0,32.0,67,0.00,,,0.00,Weather View 32 v70,2013-02-14 06:11:00,
2013-02-13 20:16:00,65.6,54.7,30.11,NNW,339,19.0,32.0,68,0.00,,,0.00,Weather View 32 v70,2013-02-14 06:16:00,
2013-02-13 20:21:00,65.5,54.6,30.10,North,6,14.0,32.0,68,0.00,,,0.00,Weather View 32 v70,2013-02-14 06:21:00,
2013-02-13 20:26:00,65.5,55.0,30.10,North,4,17.0,32.0,69,0.00,,,0.00,Weather View 32 v70,2013-02-14 06:26:00,
2013-02-13 20:31:00,65.4,55.3,30.10,North,3,19.0,32.0,70,0.00,,,0.00,Weather View 32 v70,2013-02-14 06:31:00,
2013-02-13 20:36:00,65.4,55.7,30.10,North,6,16.0,32.0,71,0.00,,,0.00,Weather View 32 v70,2013-02-14 06:36:00,
2013-02-13 20:41:00,65.4,55.7,30.10,North,351,23.0,32.0,71,0.00,,,0.00,Weather View 32 v70,2013-02-14 06:41:00,
2013-02-13 20:46:00,65.4,56.5,30.10,NW,307,13.0,32.0,73,0.00,,,0.00,Weather View 32 v70,2013-02-14 06:46:00,
2013-02-13 20:51:00,65.5,55.8,30.10,North,357,19.0,32.0,71,0.00,,,0.00,Weather View 32 v70,2013-02-14 06:51:00,
2013-02-13 20:56:00,65.4,55.7,30.10,North,349,15.0,32.0,71,0.00,,,0.00,Weather View 32 v70,2013-02-14 06:56:00,
2013-02-13 21:01:00,65.3,56.8,30.11,North,352,13.0,32.0,74,0.00,,,0.00,Weather View 32 v70,2013-02-14 07:01:00,
2013-02-13 21:06:00,65.1,56.6,30.11,North,1,12.0,27.0,74,0.00,,,0.00,Weather View 32 v70,2013-02-14 07:06:00,
2013-02-13 21:11:00,65.0,56.5,30.11,NNW,344,11.0,27.0,74,0.00,,,0.00,Weather View 32 v70,2013-02-14 07:11:00,
2013-02-13 21:16:00,65.1,56.6,30.11,NNE,14,9.0,27.0,74,0.00,,,0.00,Weather View 32 v70,2013-02-14 07:16:00,
2013-02-13 21:21:00,65.2,56.7,30.12,North,350,17.0,27.0,74,0.00,,,0.00,Weather View 32 v70,2013-02-14 07:21:00,
2013-02-13 21:26:00,65.2,57.1,30.11,NNW,338,15.0,27.0,75,0.00,,,0.00,Weather View 32 v70,2013-02-14 07:26:00,
2013-02-13 21:31:00,65.2,57.1,30.12,NNW,348,18.0,27.0,75,0.00,,,0.00,Weather View 32 v70,2013-02-14 07:31:00,
2013-02-13 21:36:00,65.1,57.0,30.12,NNE,13,13.0,27.0,75,0.00,,,0.00,Weather View 32 v70,2013-02-14 07:36:00,
2013-02-13 21:41:00,65.1,57.3,30.12,North,351,12.0,27.0,76,0.00,,,0.00,Weather View 32 v70,2013-02-14 07:41:00,
2013-02-13 21:46:00,65.0,57.2,30.12,North,349,14.0,27.0,76,0.00,,,0.00,Weather View 32 v70,2013-02-14 07:46:00,
2013-02-13 21:51:00,64.9,57.5,30.12,North,354,12.0,26.0,77,0.00,,,0.00,Weather View 32 v70,2013-02-14 07:51:00,
2013-02-13 21:56:00,64.7,57.3,30.12,North,360,17.0,26.0,77,0.00,,,0.00,Weather View 32 v70,2013-02-14 07:56:00,
2013-02-13 22:01:00,64.7,57.3,30.12,North,358,16.0,26.0,77,0.00,,,0.00,Weather View 32 v70,2013-02-14 08:01:00,
2013-02-13 22:06:00,64.7,57.3,30.12,North,353,16.0,26.0,77,0.00,,,0.00,Weather View 32 v70,2013-02-14 08:06:00,
2013-02-13 22:11:00,64.6,57.2,30.12,NNW,340,13.0,26.0,77,0.00,,,0.00,Weather View 32 v70,2013-02-14 08:11:00,
2013-02-13 22:16:00,64.8,57.4,30.12,NNW,345,15.0,26.0,77,0.00,,,0.00,Weather View 32 v70,2013-02-14 08:16:00,
2013-02-13 22:21:00,64.8,57.0,30.12,NNW,331,12.0,26.0,76,0.00,,,0.00,Weather View 32 v70,2013-02-14 08:21:00,
2013-02-13 22:26:00,64.8,57.0,30.12,NNW,347,15.0,26.0,76,0.00,,,0.00,Weather View 32 v70,2013-02-14 08:26:00,
2013-02-13 22:31:00,65.1,56.6,30.13,NNE,15,12.0,26.0,74,0.00,,,0.00,Weather View 32 v70,2013-02-14 08:31:00,
2013-02-13 22:36:00,65.2,57.1,30.12,North,6,20.0,26.0,75,0.00,,,0.00,Weather View 32 v70,2013-02-14 08:36:00,
2013-02-13 22:42:00,65.2,57.4,30.12,North,9,19.0,26.0,76,0.00,,,0.00,Weather View 32 v70,2013-02-14 08:42:00,
2013-02-13 22:47:00,65.1,57.3,30.12,NNE,24,20.0,26.0,76,0.00,,,0.00,Weather View 32 v70,2013-02-14 08:47:00,
2013-02-13 22:52:00,65.0,57.2,30.12,North,355,15.0,21.0,76,0.00,,,0.00,Weather View 32 v70,2013-02-14 08:52:00,
2013-02-13 22:57:00,65.0,57.2,30.12,NNE,27,14.0,21.0,76,0.00,,,0.00,Weather View 32 v70,2013-02-14 08:57:00,
2013-02-13 23:02:00,65.0,57.2,30.12,North,354,14.0,21.0,76,0.00,,,0.00,Weather View 32 v70,2013-02-14 09:02:00,
2013-02-13 23:07:00,64.9,57.1,30.11,NNW,341,22.0,25.0,76,0.00,,,0.00,Weather View 32 v70,2013-02-14 09:07:00,
2013-02-13 23:12:00,65.0,56.9,30.12,North,352,12.0,26.0,75,0.00,,,0.00,Weather View 32 v70,2013-02-14 09:12:00,
2013-02-13 23:17:00,65.0,56.9,30.11,NNW,332,17.0,26.0,75,0.00,,,0.00,Weather View 32 v70,2013-02-14 09:17:00,
2013-02-13 23:22:00,65.0,56.9,30.12,North,10,15.0,27.0,75,0.00,,,0.00,Weather View 32 v70,2013-02-14 09:22:00,
2013-02-13 23:27:00,65.2,56.7,30.11,NNE,12,18.0,27.0,74,0.00,,,0.00,Weather View 32 v70,2013-02-14 09:27:00,
2013-02-13 23:32:00,65.2,56.7,30.12,North,10,13.0,27.0,74,0.00,,,0.00,Weather View 32 v70,2013-02-14 09:32:00,
2013-02-13 23:37:00,65.2,57.1,30.11,North,358,21.0,27.0,75,0.00,,,0.00,Weather View 32 v70,2013-02-14 09:37:00,
2013-02-13 23:42:00,65.0,56.9,30.12,NW,321,24.0,27.0,75,0.00,,,0.00,Weather View 32 v70,2013-02-14 09:42:00,
2013-02-13 23:47:00,65.1,57.0,30.11,North,349,19.0,27.0,75,0.00,,,0.00,Weather View 32 v70,2013-02-14 09:47:00,
2013-02-13 23:52:00,65.1,56.6,30.10,North,357,22.0,27.0,74,0.00,,,0.00,Weather View 32 v70,2013-02-14 09:52:00,
2013-02-13 23:57:00,65.2,56.7,30.10,NNE,23,13.0,27.0,74,0.00,,,0.00,Weather View 32 v70,2013-02-14 09:57:00,